ARA227 EDDH-EGKK

Flight info

Callsign ARA227
Flight time 1h 20m
Altitude 38000
Route WSN5G WSN N125 ONTAZ DCT GALSO Q63 ARREK Y4 TEBRA
Aircraft B737/M-SDE2E3FGHIRWXY/LB1

Departure

Time 2026-05-05 16:34
Airport Hamburg Helmut Schmidt Airport (EDDH)

Arrival

Time 2026-05-05 17:54
Airport London Gatwick Airport (EGKK)
Time Latitude Longitude Altitude Speed Heading
2026-05-05 16:18 53.62895 10.00202 50 ft 0 kts 122°
2026-05-05 16:23 53.62895 10.00201 50 ft 0 kts 122°
2026-05-05 16:27 53.62898 10.00194 50 ft 2 kts 123°
2026-05-05 16:27 53.62909 10.00168 50 ft 3 kts 133°
2026-05-05 16:27 53.62924 10.00145 45 ft 3 kts 149°
2026-05-05 16:28 53.62941 10.00133 46 ft 3 kts 183°
2026-05-05 16:28 53.62953 10.00138 46 ft 1 kts 213°
2026-05-05 16:28 53.62956 10.00142 50 ft 2 kts 213°
2026-05-05 16:31 53.62934 10.00117 47 ft 12 kts 213°
2026-05-05 16:31 53.62866 10.00030 49 ft 10 kts 236°
2026-05-05 16:31 53.62844 9.99959 49 ft 0 kts 242°
2026-05-05 16:32 53.62811 9.99855 48 ft 16 kts 242°
2026-05-05 16:32 53.62829 9.99776 48 ft 2 kts 333°
2026-05-05 16:32 53.62837 9.99769 48 ft 0 kts 333°
2026-05-05 16:33 53.62951 9.99673 48 ft 52 kts 334°
2026-05-05 16:33 53.63514 9.99188 50 ft 127 kts 332°
2026-05-05 16:33 53.64456 9.98393 328 ft 158 kts 336°
2026-05-05 16:34 53.65377 9.97560 1354 ft 144 kts 334°
2026-05-05 16:34 53.66296 9.96796 2074 ft 154 kts 335°
2026-05-05 16:34 53.67364 9.95907 2388 ft 188 kts 333°
2026-05-05 16:34 53.68597 9.94868 2884 ft 204 kts 333°
2026-05-05 16:35 53.69890 9.93774 3531 ft 210 kts 329°
2026-05-05 16:35 53.70935 9.92065 4229 ft 212 kts 297°
2026-05-05 16:35 53.71369 9.89650 4864 ft 227 kts 271°
2026-05-05 16:35 53.71216 9.87824 5047 ft 248 kts 254°
2026-05-05 16:36 53.70644 9.85005 5816 ft 257 kts 251°
2026-05-05 16:36 53.70055 9.82125 6726 ft 261 kts 251°
2026-05-05 16:36 53.69277 9.78263 7976 ft 263 kts 252°
2026-05-05 16:36 53.68880 9.76277 8567 ft 266 kts 252°
2026-05-05 16:37 53.68098 9.72327 9775 ft 270 kts 252°
2026-05-05 16:37 53.67695 9.70282 10279 ft 275 kts 252°
2026-05-05 16:37 53.67069 9.67104 10539 ft 300 kts 252°
2026-05-05 16:37 53.66383 9.63628 10739 ft 325 kts 252°
2026-05-05 16:38 53.65641 9.59880 10919 ft 348 kts 251°
2026-05-05 16:38 53.64607 9.56155 11311 ft 362 kts 237°
2026-05-05 16:38 53.63125 9.52694 12031 ft 366 kts 234°
2026-05-05 16:38 53.61594 9.49235 12744 ft 370 kts 234°
2026-05-05 16:39 53.60051 9.45734 13471 ft 374 kts 234°
2026-05-05 16:39 53.58503 9.42183 14143 ft 378 kts 235°
2026-05-05 16:39 53.56951 9.38592 14866 ft 380 kts 235°
2026-05-05 16:39 53.55401 9.34996 15610 ft 382 kts 235°
2026-05-05 16:40 53.53830 9.31354 16314 ft 385 kts 235°
2026-05-05 16:40 53.52248 9.27694 16977 ft 389 kts 235°
2026-05-05 16:40 53.50647 9.24004 17651 ft 392 kts 235°
2026-05-05 16:40 53.49032 9.20285 18315 ft 395 kts 235°
2026-05-05 16:41 53.47407 9.16551 18875 ft 398 kts 235°
2026-05-05 16:41 53.45767 9.12783 19460 ft 400 kts 235°
2026-05-05 16:41 53.44117 9.09000 20042 ft 403 kts 235°
2026-05-05 16:41 53.42459 9.05202 20615 ft 405 kts 235°
2026-05-05 16:42 53.40790 9.01384 21167 ft 407 kts 235°
2026-05-05 16:42 53.39109 8.97543 21697 ft 410 kts 235°
2026-05-05 16:42 53.37415 8.93678 22219 ft 413 kts 235°
2026-05-05 16:42 53.35709 8.89797 22718 ft 415 kts 235°
2026-05-05 16:43 53.34193 8.85688 23171 ft 417 kts 247°
2026-05-05 16:43 53.33215 8.81118 23651 ft 418 kts 251°
2026-05-05 16:43 53.32251 8.76514 24070 ft 420 kts 250°
2026-05-05 16:43 53.31250 8.71924 24495 ft 421 kts 249°
2026-05-05 16:44 53.30227 8.67331 24890 ft 423 kts 249°
2026-05-05 16:44 53.29197 8.62713 25273 ft 424 kts 249°
2026-05-05 16:44 53.28193 8.58122 25645 ft 426 kts 249°
2026-05-05 16:44 53.27178 8.53466 26015 ft 428 kts 249°
2026-05-05 16:45 53.26158 8.48787 26360 ft 430 kts 250°
2026-05-05 16:45 53.25214 8.44035 26705 ft 432 kts 251°
2026-05-05 16:45 53.24339 8.39294 27039 ft 433 kts 252°
2026-05-05 16:45 53.23461 8.34460 27400 ft 434 kts 251°
2026-05-05 16:46 53.22578 8.29655 27866 ft 432 kts 251°
2026-05-05 16:46 53.21686 8.24883 28412 ft 429 kts 251°
2026-05-05 16:46 53.20795 8.20162 28975 ft 425 kts 250°
2026-05-05 16:46 53.19903 8.15476 29508 ft 423 kts 250°
2026-05-05 16:47 53.19010 8.10799 29996 ft 422 kts 250°
2026-05-05 16:47 53.18130 8.06150 30424 ft 420 kts 250°
2026-05-05 16:47 53.17257 8.01522 30854 ft 418 kts 250°
2026-05-05 16:47 53.16389 7.96914 31275 ft 416 kts 250°
2026-05-05 16:48 53.15521 7.92320 31684 ft 414 kts 250°
2026-05-05 16:48 53.14653 7.87744 32071 ft 413 kts 250°
2026-05-05 16:48 53.13788 7.83193 32463 ft 411 kts 251°
2026-05-05 16:48 53.12935 7.78720 32860 ft 409 kts 251°
2026-05-05 16:49 53.12075 7.74212 33240 ft 408 kts 251°
2026-05-05 16:49 53.11213 7.69715 33595 ft 407 kts 251°
2026-05-05 16:49 53.10353 7.65235 33943 ft 405 kts 251°
2026-05-05 16:49 53.09493 7.60770 34198 ft 406 kts 251°
2026-05-05 16:50 53.08628 7.56287 34347 ft 408 kts 251°
2026-05-05 16:50 53.07757 7.51783 34526 ft 410 kts 251°
2026-05-05 16:50 53.06884 7.47273 34752 ft 410 kts 251°
2026-05-05 16:50 53.06006 7.42746 34958 ft 411 kts 251°
2026-05-05 16:51 53.05126 7.38218 35133 ft 412 kts 251°
2026-05-05 16:51 53.04242 7.33677 35327 ft 413 kts 251°
2026-05-05 16:51 53.03357 7.29144 35526 ft 414 kts 251°
2026-05-05 16:51 53.02463 7.24583 35694 ft 415 kts 251°
2026-05-05 16:52 53.01505 7.20067 35888 ft 415 kts 245°
2026-05-05 16:52 53.00272 7.15725 36065 ft 416 kts 244°
2026-05-05 16:52 52.98997 7.11416 36238 ft 417 kts 243°
2026-05-05 16:52 52.97725 7.07159 36422 ft 417 kts 243°
2026-05-05 16:53 52.96434 7.02838 36591 ft 419 kts 243°
2026-05-05 16:53 52.95143 6.98505 36771 ft 420 kts 243°
2026-05-05 16:53 52.93853 6.94170 36953 ft 420 kts 243°
2026-05-05 16:53 52.92559 6.89811 37095 ft 422 kts 243°
2026-05-05 16:54 52.91263 6.85445 37233 ft 423 kts 243°
2026-05-05 16:54 52.89962 6.81065 37423 ft 423 kts 243°
2026-05-05 16:54 52.88660 6.76689 37583 ft 424 kts 243°
2026-05-05 16:54 52.87357 6.72316 37741 ft 424 kts 243°
2026-05-05 16:55 52.86046 6.67923 37893 ft 426 kts 243°
2026-05-05 16:55 52.84731 6.63528 37913 ft 428 kts 243°
2026-05-05 16:55 52.82085 6.54705 37919 ft 426 kts 243°
2026-05-05 16:56 52.79458 6.45977 37917 ft 423 kts 243°
2026-05-05 16:56 52.76834 6.37295 37919 ft 422 kts 243°
2026-05-05 16:57 52.74212 6.28647 37920 ft 421 kts 243°
2026-05-05 16:57 52.71598 6.20057 37923 ft 421 kts 243°
2026-05-05 16:58 52.68959 6.11417 37916 ft 423 kts 243°
2026-05-05 16:58 52.66304 6.02757 37920 ft 424 kts 242°
2026-05-05 16:59 52.63631 5.94067 37915 ft 426 kts 242°
2026-05-05 16:59 52.60942 5.85359 37919 ft 427 kts 242°
2026-05-05 17:00 52.58236 5.76626 37906 ft 429 kts 242°
2026-05-05 17:00 52.55523 5.67900 37912 ft 429 kts 242°
2026-05-05 17:01 52.52819 5.59237 37912 ft 430 kts 242°
2026-05-05 17:01 52.50087 5.50512 37915 ft 430 kts 242°
2026-05-05 17:02 52.47345 5.41790 37903 ft 430 kts 242°
2026-05-05 17:02 52.44600 5.33088 37905 ft 430 kts 242°
2026-05-05 17:03 52.41844 5.24384 37907 ft 430 kts 241°
2026-05-05 17:03 52.39100 5.15747 37907 ft 430 kts 241°
2026-05-05 17:04 52.36332 5.07064 37907 ft 430 kts 241°
2026-05-05 17:04 52.33555 4.98387 37914 ft 431 kts 241°
2026-05-05 17:05 52.30771 4.89717 37910 ft 431 kts 241°
2026-05-05 17:05 52.27977 4.81046 37916 ft 431 kts 241°
2026-05-05 17:06 52.25224 4.72533 37906 ft 429 kts 241°
2026-05-05 17:06 52.23861 4.68326 37932 ft 409 kts 240°
2026-05-05 17:06 52.22563 4.64322 37904 ft 388 kts 240°
2026-05-05 17:07 52.21329 4.60522 37920 ft 371 kts 240°
2026-05-05 17:07 52.20144 4.56882 37921 ft 356 kts 240°
2026-05-05 17:07 52.19003 4.53382 37907 ft 345 kts 240°
2026-05-05 17:07 52.17879 4.49946 37904 ft 342 kts 240°
2026-05-05 17:08 52.15658 4.43170 37897 ft 336 kts 240°
2026-05-05 17:08 52.13468 4.36501 37898 ft 331 kts 240°
2026-05-05 17:09 52.11323 4.29987 37902 ft 327 kts 240°
2026-05-05 17:09 52.09185 4.23509 37900 ft 323 kts 240°
2026-05-05 17:10 52.07068 4.17111 37897 ft 320 kts 240°
2026-05-05 17:10 52.04968 4.10780 37884 ft 318 kts 240°
2026-05-05 17:11 52.02855 4.04428 37818 ft 323 kts 240°
2026-05-05 17:11 52.01769 4.01172 37568 ft 335 kts 239°
2026-05-05 17:11 52.00624 3.97750 37141 ft 354 kts 239°
2026-05-05 17:12 51.99424 3.94164 36892 ft 368 kts 239°
2026-05-05 17:12 51.98194 3.90488 37015 ft 371 kts 239°
2026-05-05 17:12 51.96961 3.86805 37301 ft 371 kts 239°
2026-05-05 17:12 51.95727 3.83122 37558 ft 372 kts 240°
2026-05-05 17:13 51.94488 3.79434 37733 ft 374 kts 240°
2026-05-05 17:13 51.93249 3.75751 37823 ft 378 kts 240°
2026-05-05 17:13 51.90701 3.68199 37908 ft 389 kts 240°
2026-05-05 17:14 51.88058 3.60389 37918 ft 401 kts 239°
2026-05-05 17:14 51.85337 3.52372 37923 ft 412 kts 239°
2026-05-05 17:15 51.82540 3.44157 37920 ft 422 kts 239°
2026-05-05 17:15 51.79669 3.35751 37927 ft 432 kts 239°
2026-05-05 17:16 51.76733 3.27181 37926 ft 440 kts 239°
2026-05-05 17:16 51.73914 3.18360 37915 ft 444 kts 247°
2026-05-05 17:17 51.72452 3.08654 37931 ft 448 kts 260°
2026-05-05 17:17 51.71658 2.98672 37921 ft 449 kts 261°
2026-05-05 17:18 51.70843 2.88751 37916 ft 449 kts 260°
2026-05-05 17:18 51.69975 2.78810 37918 ft 448 kts 260°
2026-05-05 17:19 51.69093 2.68869 37924 ft 448 kts 259°
2026-05-05 17:19 51.68202 2.58901 37318 ft 454 kts 259°
2026-05-05 17:20 51.67752 2.53892 36777 ft 449 kts 259°
2026-05-05 17:20 51.67302 2.48915 36079 ft 447 kts 259°
2026-05-05 17:20 51.66846 2.43973 35365 ft 446 kts 259°
2026-05-05 17:20 51.66382 2.39033 34599 ft 446 kts 258°
2026-05-05 17:21 51.65915 2.34093 33799 ft 446 kts 258°
2026-05-05 17:21 51.65448 2.29158 32850 ft 446 kts 258°
2026-05-05 17:21 51.64979 2.24212 31973 ft 447 kts 258°
2026-05-05 17:22 51.64196 2.15982 30454 ft 448 kts 258°
2026-05-05 17:22 51.63567 2.09394 29055 ft 450 kts 259°
2026-05-05 17:22 51.63258 2.06024 28288 ft 451 kts 259°
2026-05-05 17:22 51.62665 1.99387 26810 ft 452 kts 260°
2026-05-05 17:23 51.62214 1.94378 25743 ft 453 kts 260°
2026-05-05 17:23 51.61698 1.89427 24941 ft 445 kts 255°
2026-05-05 17:23 51.61084 1.86236 24385 ft 441 kts 248°
2026-05-05 17:23 51.59784 1.81811 23583 ft 435 kts 240°
2026-05-05 17:24 51.58145 1.77853 22654 ft 430 kts 230°
2026-05-05 17:24 51.56179 1.74255 21630 ft 428 kts 227°
2026-05-05 17:24 51.54276 1.70873 21754 ft 404 kts 230°
2026-05-05 17:24 51.52977 1.67130 21795 ft 402 kts 252°
2026-05-05 17:25 51.52572 1.62629 21936 ft 415 kts 267°
2026-05-05 17:25 51.52567 1.59465 21934 ft 424 kts 269°
2026-05-05 17:25 51.52698 1.53212 21915 ft 413 kts 271°
2026-05-05 17:25 51.52830 1.48788 21914 ft 393 kts 271°
2026-05-05 17:26 51.52969 1.44524 21919 ft 372 kts 271°
2026-05-05 17:26 51.53107 1.40474 21913 ft 355 kts 271°
2026-05-05 17:26 51.53230 1.36612 21919 ft 340 kts 268°
2026-05-05 17:26 51.52761 1.32982 21934 ft 332 kts 242°
2026-05-05 17:27 51.51349 1.30100 21622 ft 330 kts 215°
2026-05-05 17:27 51.49285 1.28607 21226 ft 329 kts 190°
2026-05-05 17:27 51.47009 1.28753 20708 ft 331 kts 167°
2026-05-05 17:27 51.44819 1.29804 20322 ft 326 kts 162°
2026-05-05 17:28 51.42686 1.30982 19744 ft 322 kts 162°
2026-05-05 17:28 51.40574 1.32170 19043 ft 323 kts 161°
2026-05-05 17:28 51.38473 1.33347 18390 ft 323 kts 161°
2026-05-05 17:28 51.36332 1.34533 17767 ft 319 kts 161°
2026-05-05 17:29 51.34208 1.35262 17081 ft 317 kts 176°
2026-05-05 17:29 51.32015 1.35319 16453 ft 315 kts 180°
2026-05-05 17:29 51.29828 1.35260 15815 ft 313 kts 181°
2026-05-05 17:29 51.27654 1.35180 15243 ft 312 kts 181°
2026-05-05 17:30 51.25483 1.35089 15077 ft 314 kts 181°
2026-05-05 17:30 51.23309 1.34837 14938 ft 313 kts 195°
2026-05-05 17:30 51.21436 1.33167 14943 ft 312 kts 225°
2026-05-05 17:30 51.20235 1.30295 14953 ft 313 kts 241°
2026-05-05 17:31 51.19183 1.27238 14932 ft 314 kts 240°
2026-05-05 17:31 51.18096 1.24217 14924 ft 313 kts 239°
2026-05-05 17:31 51.16980 1.21241 14924 ft 313 kts 238°
2026-05-05 17:31 51.15836 1.18284 14923 ft 313 kts 238°
2026-05-05 17:32 51.14680 1.15351 14927 ft 313 kts 237°
2026-05-05 17:32 51.13515 1.12431 14930 ft 313 kts 237°
2026-05-05 17:32 51.12342 1.09510 14936 ft 313 kts 237°
2026-05-05 17:32 51.11158 1.06571 14949 ft 319 kts 237°
2026-05-05 17:33 51.09953 1.03587 14939 ft 320 kts 237°
2026-05-05 17:33 51.08757 1.00628 14934 ft 316 kts 237°
2026-05-05 17:33 51.07575 0.97711 14927 ft 311 kts 237°
2026-05-05 17:33 51.06431 0.94891 14864 ft 302 kts 237°
2026-05-05 17:34 51.05344 0.92108 14776 ft 291 kts 241°
2026-05-05 17:34 51.04465 0.89283 14690 ft 280 kts 245°
2026-05-05 17:34 51.03665 0.86495 14459 ft 275 kts 245°
2026-05-05 17:34 51.02879 0.83749 14038 ft 273 kts 245°
2026-05-05 17:35 51.02082 0.81001 13519 ft 274 kts 245°
2026-05-05 17:35 51.01280 0.78275 13082 ft 270 kts 245°
2026-05-05 17:35 51.00483 0.75592 12631 ft 268 kts 245°
2026-05-05 17:35 50.99686 0.72926 12178 ft 266 kts 245°
2026-05-05 17:36 50.98894 0.70287 11738 ft 264 kts 245°
2026-05-05 17:36 50.98110 0.67676 11311 ft 261 kts 245°
2026-05-05 17:36 50.97329 0.65080 10883 ft 259 kts 245°
2026-05-05 17:36 50.96554 0.62508 10527 ft 260 kts 245°
2026-05-05 17:37 50.95781 0.59942 10285 ft 256 kts 245°
2026-05-05 17:37 50.95014 0.57399 10003 ft 255 kts 245°
2026-05-05 17:37 50.94250 0.54868 9705 ft 254 kts 245°
2026-05-05 17:37 50.93498 0.52380 9459 ft 253 kts 245°
2026-05-05 17:38 50.92841 0.49811 9096 ft 251 kts 263°
2026-05-05 17:38 50.92860 0.47069 8810 ft 247 kts 276°
2026-05-05 17:38 50.92991 0.44353 8502 ft 246 kts 276°
2026-05-05 17:38 50.93120 0.41651 8190 ft 246 kts 276°
2026-05-05 17:39 50.93238 0.39115 8053 ft 246 kts 276°
2026-05-05 17:39 50.93365 0.36386 8024 ft 250 kts 276°
2026-05-05 17:39 50.93487 0.33751 8017 ft 249 kts 276°
2026-05-05 17:39 50.93613 0.31023 7987 ft 246 kts 276°
2026-05-05 17:40 50.93737 0.28341 7783 ft 242 kts 276°
2026-05-05 17:40 50.93858 0.25674 7458 ft 243 kts 276°
2026-05-05 17:40 50.93977 0.23016 7173 ft 242 kts 276°
2026-05-05 17:40 50.94094 0.20357 6890 ft 241 kts 276°
2026-05-05 17:41 50.94208 0.17710 6607 ft 240 kts 276°
2026-05-05 17:41 50.94320 0.15075 6323 ft 239 kts 276°
2026-05-05 17:41 50.94429 0.12451 6034 ft 238 kts 276°
2026-05-05 17:41 50.94539 0.09818 6011 ft 242 kts 276°
2026-05-05 17:42 50.94648 0.07165 5992 ft 241 kts 276°
2026-05-05 17:42 50.94758 0.04515 5987 ft 239 kts 276°
2026-05-05 17:42 50.94865 0.01908 5975 ft 236 kts 276°
2026-05-05 17:42 50.94969 -0.00695 5986 ft 234 kts 276°
2026-05-05 17:43 50.95053 -0.03213 5738 ft 233 kts 276°
2026-05-05 17:43 50.95135 -0.05803 5374 ft 236 kts 276°
2026-05-05 17:43 50.95215 -0.08394 5112 ft 235 kts 276°
2026-05-05 17:43 50.95295 -0.10988 5028 ft 236 kts 276°
2026-05-05 17:44 50.95377 -0.13600 4998 ft 237 kts 276°
2026-05-05 17:44 50.95459 -0.16200 4983 ft 235 kts 276°
2026-05-05 17:44 50.95540 -0.18778 4984 ft 234 kts 276°
2026-05-05 17:44 50.95621 -0.21356 4989 ft 234 kts 277°
2026-05-05 17:45 50.95975 -0.23824 4849 ft 227 kts 290°
2026-05-05 17:45 50.96463 -0.26223 4494 ft 229 kts 291°
2026-05-05 17:45 50.96957 -0.28635 4161 ft 231 kts 291°
2026-05-05 17:45 50.97458 -0.31059 3868 ft 231 kts 291°
2026-05-05 17:46 50.97961 -0.33475 3567 ft 230 kts 291°
2026-05-05 17:46 50.98460 -0.35852 3282 ft 230 kts 291°
2026-05-05 17:46 50.98963 -0.38251 3083 ft 231 kts 290°
2026-05-05 17:46 50.99476 -0.40676 3009 ft 231 kts 291°
2026-05-05 17:47 50.99990 -0.43089 2992 ft 230 kts 290°
2026-05-05 17:47 51.00504 -0.45492 2991 ft 231 kts 291°
2026-05-05 17:47 51.01029 -0.47933 2992 ft 231 kts 290°
2026-05-05 17:47 51.01717 -0.50163 2968 ft 227 kts 316°
2026-05-05 17:48 51.02981 -0.51581 2994 ft 222 kts 330°
2026-05-05 17:48 51.04304 -0.52850 2987 ft 222 kts 330°
2026-05-05 17:48 51.05628 -0.54117 2990 ft 223 kts 330°
2026-05-05 17:48 51.06991 -0.55211 2966 ft 223 kts 350°
2026-05-05 17:49 51.08433 -0.54954 2990 ft 215 kts 25°
2026-05-05 17:49 51.09465 -0.53402 2983 ft 200 kts 58°
2026-05-05 17:49 51.10144 -0.51560 2968 ft 187 kts 59°
2026-05-05 17:49 51.10566 -0.49703 2976 ft 171 kts 77°
2026-05-05 17:50 51.10831 -0.47891 3001 ft 165 kts 73°
2026-05-05 17:50 51.11124 -0.46131 2996 ft 162 kts 73°
2026-05-05 17:50 51.11350 -0.44378 3015 ft 163 kts 76°
2026-05-05 17:50 51.11579 -0.42597 2967 ft 167 kts 76°
2026-05-05 17:51 51.11823 -0.40768 2699 ft 168 kts 76°
2026-05-05 17:51 51.12064 -0.38985 2476 ft 160 kts 76°
2026-05-05 17:51 51.12294 -0.37293 2250 ft 155 kts 76°
2026-05-05 17:51 51.12522 -0.35628 2073 ft 155 kts 76°
2026-05-05 17:52 51.12756 -0.33931 1882 ft 156 kts 76°
2026-05-05 17:52 51.12990 -0.32242 1657 ft 156 kts 76°
2026-05-05 17:52 51.13226 -0.30566 1504 ft 155 kts 77°
2026-05-05 17:52 51.13444 -0.28967 1355 ft 136 kts 76°
2026-05-05 17:53 51.13635 -0.27584 1063 ft 122 kts 77°
2026-05-05 17:53 51.13817 -0.26297 826 ft 118 kts 76°
2026-05-05 17:53 51.14016 -0.24892 707 ft 132 kts 77°
2026-05-05 17:53 51.14194 -0.23510 603 ft 131 kts 77°
2026-05-05 17:54 51.14396 -0.22051 422 ft 138 kts 77°
2026-05-05 17:54 51.14604 -0.20567 238 ft 136 kts 77°
2026-05-05 17:54 51.14792 -0.19229 211 ft 100 kts 77°
2026-05-05 17:54 51.14917 -0.18560 204 ft 35 kts 49°
2026-05-05 17:55 51.15036 -0.18331 210 ft 14 kts 50°
2026-05-05 17:55 51.15067 -0.18270 205 ft 0 kts 51°
2026-05-05 17:55 51.15069 -0.18266 205 ft 2 kts 51°
2026-05-05 17:56 51.15091 -0.18221 204 ft 7 kts 50°
2026-05-05 17:56 51.15134 -0.18196 208 ft 7 kts
2026-05-05 17:56 51.15192 -0.18187 204 ft 13 kts 49°
2026-05-05 17:56 51.15230 -0.17978 204 ft 23 kts 79°
2026-05-05 17:57 51.15263 -0.17731 207 ft 23 kts 78°
2026-05-05 17:57 51.15295 -0.17490 204 ft 22 kts 80°
2026-05-05 17:57 51.15316 -0.17253 204 ft 21 kts 78°
2026-05-05 17:57 51.15348 -0.17030 209 ft 21 kts 76°
2026-05-05 17:58 51.15378 -0.16810 212 ft 20 kts 76°
2026-05-05 17:58 51.15408 -0.16598 209 ft 19 kts 77°
2026-05-05 17:58 51.15373 -0.16494 204 ft 11 kts 165°
2026-05-05 17:58 51.15309 -0.16459 212 ft 7 kts 124°
2026-05-05 17:59 51.15310 -0.16397 204 ft 5 kts 77°
2026-05-05 17:59 51.15318 -0.16354 214 ft 2 kts 56°
2026-05-05 17:59 51.15331 -0.16346 212 ft 2 kts 17°
2026-05-05 17:59 51.15345 -0.16344 205 ft 3 kts 358°
2026-05-05 18:00 51.15366 -0.16346 204 ft 0 kts 357°